iso_date,epoch_date,Year,Hour,Min,DOY,POS_DOY,Lat,Lon,BP,Ts,Ta,has_bp,has_ts,has_ta,BuoyID,Buoy_Type,Buoy_Owner,Logistics,Hemisphere
2020-09-05T18:00:00Z,1599328800,2020,18,0,249.75,249.75,62.639,-51.91,-999.00,7.89,-999.0,no,yes,no,300234068342570,SVPGHI,AOML,MARIA_S._MERI,North
2020-09-05T19:00:02Z,1599332403,2020,19,0,249.7917,249.7917,62.66,-51.943,-999.00,7.87,-999.0,no,yes,no,300234068342570,SVPGHI,AOML,MARIA_S._MERI,North
2020-09-05T20:03:59Z,1599336239,2020,20,4,249.8361,249.8361,62.679,-51.978,-999.00,7.82,-999.0,no,yes,no,300234068342570,SVPGHI,AOML,MARIA_S._MERI,North
2020-09-05T21:02:00Z,1599339721,2020,21,2,249.8764,249.8764,62.696,-52.014,-999.00,7.79,-999.0,no,yes,no,300234068342570,SVPGHI,AOML,MARIA_S._MERI,North
2020-09-05T22:00:02Z,1599343203,2020,22,0,249.9167,249.9167,62.71,-52.05,-999.00,7.75,-999.0,no,yes,no,300234068342570,SVPGHI,AOML,MARIA_S._MERI,North
2020-09-05T22:59:57Z,1599346797,2020,23,0,249.9583,249.9583,62.723,-52.087,-999.00,7.74,-999.0,no,yes,no,300234068342570,SVPGHI,AOML,MARIA_S._MERI,North
2020-09-06T00:04:01Z,1599350642,2020,0,4,250.0028,250.0028,62.733,-52.136,-999.00,7.72,-999.0,no,yes,no,300234068342570,SVPGHI,AOML,MARIA_S._MERI,North
2020-09-06T01:00:02Z,1599354003,2020,1,0,250.0417,250.0417,62.739,-52.184,-999.00,7.7,-999.0,no,yes,no,300234068342570,SVPGHI,AOML,MARIA_S._MERI,North
2020-09-06T02:01:58Z,1599357718,2020,2,2,250.0847,250.0847,62.743,-52.244,-999.00,7.69,-999.0,no,yes,no,300234068342570,SVPGHI,AOML,MARIA_S._MERI,North
2020-09-06T03:00:00Z,1599361200,2020,3,0,250.125,250.125,62.748,-52.305,-999.00,7.68,-999.0,no,yes,no,300234068342570,SVPGHI,AOML,MARIA_S._MERI,North
2020-09-06T04:00:02Z,1599364803,2020,4,0,250.1667,250.1667,62.756,-52.367,-999.00,7.69,-999.0,no,yes,no,300234068342570,SVPGHI,AOML,MARIA_S._MERI,North
2020-09-06T05:00:57Z,1599368458,2020,5,1,250.209,250.209,62.762,-52.426,-999.00,7.68,-999.0,no,yes,no,300234068342570,SVPGHI,AOML,MARIA_S._MERI,North
2020-09-06T06:03:01Z,1599372181,2020,6,3,250.2521,250.2521,62.766,-52.482,-999.00,7.66,-999.0,no,yes,no,300234068342570,SVPGHI,AOML,MARIA_S._MERI,North
2020-09-06T07:00:02Z,1599375603,2020,7,0,250.2917,250.2917,62.768,-52.533,-999.00,7.67,-999.0,no,yes,no,300234068342570,SVPGHI,AOML,MARIA_S._MERI,North
2020-09-06T07:59:57Z,1599379197,2020,8,0,250.3333,250.3333,62.77,-52.59,-999.00,7.64,-999.0,no,yes,no,300234068342570,SVPGHI,AOML,MARIA_S._MERI,North
2020-09-06T09:00:00Z,1599382800,2020,9,0,250.375,250.375,62.77,-52.648,-999.00,7.6,-999.0,no,yes,no,300234068342570,SVPGHI,AOML,MARIA_S._MERI,North
2020-09-06T10:00:02Z,1599386403,2020,10,0,250.4167,250.4167,62.772,-52.714,-999.00,7.53,-999.0,no,yes,no,300234068342570,SVPGHI,AOML,MARIA_S._MERI,North
2020-09-06T10:59:57Z,1599389997,2020,11,0,250.4583,250.4583,62.777,-52.777,-999.00,7.37,-999.0,no,yes,no,300234068342570,SVPGHI,AOML,MARIA_S._MERI,North
2020-09-06T12:00:00Z,1599393600,2020,12,0,250.5,250.5,62.774,-52.828,-999.00,7.21,-999.0,no,yes,no,300234068342570,SVPGHI,AOML,MARIA_S._MERI,North
2020-09-06T13:00:02Z,1599397203,2020,13,0,250.5417,250.5417,62.773,-52.889,-999.00,7.1,-999.0,no,yes,no,300234068342570,SVPGHI,AOML,MARIA_S._MERI,North
2020-09-06T13:59:57Z,1599400797,2020,14,0,250.5833,250.5833,62.772,-52.95,-999.00,7.06,-999.0,no,yes,no,300234068342570,SVPGHI,AOML,MARIA_S._MERI,North
2020-09-06T15:02:00Z,1599404521,2020,15,2,250.6264,250.6264,62.775,-53.014,-999.00,6.92,-999.0,no,yes,no,300234068342570,SVPGHI,AOML,MARIA_S._MERI,North
2020-09-06T16:01:03Z,1599408063,2020,16,1,250.6674,250.6674,62.781,-53.074,-999.00,4.38,-999.0,no,yes,no,300234068342570,SVPGHI,AOML,MARIA_S._MERI,North
2020-09-06T16:59:57Z,1599411597,2020,17,0,250.7083,250.7083,62.793,-53.127,-999.00,4.29,-999.0,no,yes,no,300234068342570,SVPGHI,AOML,MARIA_S._MERI,North
2020-09-06T18:00:00Z,1599415200,2020,18,0,250.75,250.75,62.809,-53.173,-999.00,4.05,-999.0,no,yes,no,300234068342570,SVPGHI,AOML,MARIA_S._MERI,North
2020-09-06T19:00:02Z,1599418803,2020,19,0,250.7917,250.7917,62.831,-53.213,-999.00,5.06,-999.0,no,yes,no,300234068342570,SVPGHI,AOML,MARIA_S._MERI,North
2020-09-06T19:59:57Z,1599422397,2020,20,0,250.8333,250.8333,62.855,-53.243,-999.00,4.66,-999.0,no,yes,no,300234068342570,SVPGHI,AOML,MARIA_S._MERI,North
2020-09-06T21:00:00Z,1599426000,2020,21,0,250.875,250.875,62.881,-53.267,-999.00,4.7,-999.0,no,yes,no,300234068342570,SVPGHI,AOML,MARIA_S._MERI,North
2020-09-06T22:00:02Z,1599429603,2020,22,0,250.9167,250.9167,62.907,-53.285,-999.00,4.72,-999.0,no,yes,no,300234068342570,SVPGHI,AOML,MARIA_S._MERI,North
2020-09-06T22:59:57Z,1599433197,2020,23,0,250.9583,250.9583,62.933,-53.302,-999.00,4.83,-999.0,no,yes,no,300234068342570,SVPGHI,AOML,MARIA_S._MERI,North
2020-09-07T00:00:00Z,1599436800,2020,0,0,251.0,251.0,62.96,-53.312,-999.00,4.91,-999.0,no,yes,no,300234068342570,SVPGHI,AOML,MARIA_S._MERI,North
2020-09-07T01:00:02Z,1599440403,2020,1,0,251.0417,251.0417,62.983,-53.317,-999.00,5.07,-999.0,no,yes,no,300234068342570,SVPGHI,AOML,MARIA_S._MERI,North
2020-09-07T03:00:00Z,1599447600,2020,3,0,251.125,251.125,63.028,-53.318,-999.00,5.08,-999.0,no,yes,no,300234068342570,SVPGHI,AOML,MARIA_S._MERI,North
2020-09-07T04:01:03Z,1599451263,2020,4,1,251.1674,251.1674,63.047,-53.313,-999.00,5.14,-999.0,no,yes,no,300234068342570,SVPGHI,AOML,MARIA_S._MERI,North
2020-09-07T04:59:57Z,1599454797,2020,5,0,251.2083,251.2083,63.066,-53.31,-999.00,5.16,-999.0,no,yes,no,300234068342570,SVPGHI,AOML,MARIA_S._MERI,North
2020-09-07T06:00:00Z,1599458400,2020,6,0,251.25,251.25,63.084,-53.306,-999.00,5.26,-999.0,no,yes,no,300234068342570,SVPGHI,AOML,MARIA_S._MERI,North
2020-09-07T07:00:02Z,1599462003,2020,7,0,251.2917,251.2917,63.099,-53.306,-999.00,5.28,-999.0,no,yes,no,300234068342570,SVPGHI,AOML,MARIA_S._MERI,North
2020-09-07T07:59:57Z,1599465597,2020,8,0,251.3333,251.3333,63.115,-53.314,-999.00,5.32,-999.0,no,yes,no,300234068342570,SVPGHI,AOML,MARIA_S._MERI,North
2020-09-07T09:00:00Z,1599469200,2020,9,0,251.375,251.375,63.131,-53.327,-999.00,5.3,-999.0,no,yes,no,300234068342570,SVPGHI,AOML,MARIA_S._MERI,North
2020-09-07T10:00:02Z,1599472803,2020,10,0,251.4167,251.4167,63.145,-53.343,-999.00,5.25,-999.0,no,yes,no,300234068342570,SVPGHI,AOML,MARIA_S._MERI,North
2020-09-07T10:59:57Z,1599476397,2020,11,0,251.4583,251.4583,63.157,-53.365,-999.00,5.27,-999.0,no,yes,no,300234068342570,SVPGHI,AOML,MARIA_S._MERI,North
2020-09-07T12:00:00Z,1599480000,2020,12,0,251.5,251.5,63.166,-53.39,-999.00,5.28,-999.0,no,yes,no,300234068342570,SVPGHI,AOML,MARIA_S._MERI,North
2020-09-07T13:00:02Z,1599483603,2020,13,0,251.5417,251.5417,63.174,-53.418,-999.00,5.29,-999.0,no,yes,no,300234068342570,SVPGHI,AOML,MARIA_S._MERI,North
2020-09-07T13:59:57Z,1599487197,2020,14,0,251.5833,251.5833,63.183,-53.445,-999.00,5.09,-999.0,no,yes,no,300234068342570,SVPGHI,AOML,MARIA_S._MERI,North
2020-09-07T15:00:00Z,1599490800,2020,15,0,251.625,251.625,63.191,-53.469,-999.00,4.85,-999.0,no,yes,no,300234068342570,SVPGHI,AOML,MARIA_S._MERI,North
2020-09-07T16:00:02Z,1599494403,2020,16,0,251.6667,251.6667,63.194,-53.487,-999.00,4.8,-999.0,no,yes,no,300234068342570,SVPGHI,AOML,MARIA_S._MERI,North
2020-09-07T16:59:57Z,1599497997,2020,17,0,251.7083,251.7083,63.198,-53.499,-999.00,4.63,-999.0,no,yes,no,300234068342570,SVPGHI,AOML,MARIA_S._MERI,North
2020-09-07T18:00:00Z,1599501600,2020,18,0,251.75,251.75,63.199,-53.51,-999.00,4.62,-999.0,no,yes,no,300234068342570,SVPGHI,AOML,MARIA_S._MERI,North
2020-09-07T19:00:02Z,1599505203,2020,19,0,251.7917,251.7917,63.198,-53.529,-999.00,4.6,-999.0,no,yes,no,300234068342570,SVPGHI,AOML,MARIA_S._MERI,North
2020-09-07T20:00:57Z,1599508858,2020,20,1,251.834,251.834,63.197,-53.548,-999.00,4.7,-999.0,no,yes,no,300234068342570,SVPGHI,AOML,MARIA_S._MERI,North
2020-09-07T21:00:00Z,1599512400,2020,21,0,251.875,251.875,63.195,-53.574,-999.00,4.8,-999.0,no,yes,no,300234068342570,SVPGHI,AOML,MARIA_S._MERI,North
2020-09-07T22:00:02Z,1599516003,2020,22,0,251.9167,251.9167,63.194,-53.596,-999.00,4.88,-999.0,no,yes,no,300234068342570,SVPGHI,AOML,MARIA_S._MERI,North
2020-09-07T22:59:57Z,1599519597,2020,23,0,251.9583,251.9583,63.196,-53.618,-999.00,4.97,-999.0,no,yes,no,300234068342570,SVPGHI,AOML,MARIA_S._MERI,North
2020-09-08T00:00:00Z,1599523200,2020,0,0,252.0,252.0,63.195,-53.643,-999.00,5.05,-999.0,no,yes,no,300234068342570,SVPGHI,AOML,MARIA_S._MERI,North
2020-09-08T01:00:02Z,1599526803,2020,1,0,252.0417,252.0417,63.195,-53.661,-999.00,5.03,-999.0,no,yes,no,300234068342570,SVPGHI,AOML,MARIA_S._MERI,North
2020-09-08T01:59:57Z,1599530397,2020,2,0,252.0833,252.0833,63.195,-53.679,-999.00,6.29,-999.0,no,yes,no,300234068342570,SVPGHI,AOML,MARIA_S._MERI,North
2020-09-08T03:00:00Z,1599534000,2020,3,0,252.125,252.125,63.196,-53.695,-999.00,7.01,-999.0,no,yes,no,300234068342570,SVPGHI,AOML,MARIA_S._MERI,North
2020-09-08T04:01:03Z,1599537663,2020,4,1,252.1674,252.1674,63.194,-53.705,-999.00,7.02,-999.0,no,yes,no,300234068342570,SVPGHI,AOML,MARIA_S._MERI,North
2020-09-08T04:59:57Z,1599541197,2020,5,0,252.2083,252.2083,63.191,-53.712,-999.00,6.99,-999.0,no,yes,no,300234068342570,SVPGHI,AOML,MARIA_S._MERI,North
2020-09-08T06:00:00Z,1599544800,2020,6,0,252.25,252.25,63.188,-53.717,-999.00,6.99,-999.0,no,yes,no,300234068342570,SVPGHI,AOML,MARIA_S._MERI,North
2020-09-08T07:00:02Z,1599548403,2020,7,0,252.2917,252.2917,63.183,-53.721,-999.00,6.7,-999.0,no,yes,no,300234068342570,SVPGHI,AOML,MARIA_S._MERI,North
2020-09-08T07:59:57Z,1599551997,2020,8,0,252.3333,252.3333,63.176,-53.73,-999.00,6.96,-999.0,no,yes,no,300234068342570,SVPGHI,AOML,MARIA_S._MERI,North
2020-09-08T09:00:00Z,1599555600,2020,9,0,252.375,252.375,63.17,-53.747,-999.00,6.98,-999.0,no,yes,no,300234068342570,SVPGHI,AOML,MARIA_S._MERI,North
2020-09-08T10:00:02Z,1599559203,2020,10,0,252.4167,252.4167,63.168,-53.764,-999.00,6.95,-999.0,no,yes,no,300234068342570,SVPGHI,AOML,MARIA_S._MERI,North
2020-09-08T10:59:57Z,1599562797,2020,11,0,252.4583,252.4583,63.163,-53.786,-999.00,6.9,-999.0,no,yes,no,300234068342570,SVPGHI,AOML,MARIA_S._MERI,North
2020-09-08T12:02:00Z,1599566521,2020,12,2,252.5014,252.5014,63.163,-53.808,-999.00,6.94,-999.0,no,yes,no,300234068342570,SVPGHI,AOML,MARIA_S._MERI,North
2020-09-08T13:00:02Z,1599570003,2020,13,0,252.5417,252.5417,63.166,-53.829,-999.00,6.83,-999.0,no,yes,no,300234068342570,SVPGHI,AOML,MARIA_S._MERI,North
2020-09-08T13:59:57Z,1599573597,2020,14,0,252.5833,252.5833,63.171,-53.845,-999.00,6.88,-999.0,no,yes,no,300234068342570,SVPGHI,AOML,MARIA_S._MERI,North
2020-09-08T15:00:00Z,1599577200,2020,15,0,252.625,252.625,63.173,-53.859,-999.00,6.79,-999.0,no,yes,no,300234068342570,SVPGHI,AOML,MARIA_S._MERI,North
2020-09-08T16:00:02Z,1599580803,2020,16,0,252.6667,252.6667,63.174,-53.868,-999.00,6.81,-999.0,no,yes,no,300234068342570,SVPGHI,AOML,MARIA_S._MERI,North
2020-09-08T16:59:57Z,1599584397,2020,17,0,252.7083,252.7083,63.175,-53.868,-999.00,6.82,-999.0,no,yes,no,300234068342570,SVPGHI,AOML,MARIA_S._MERI,North
2020-09-08T18:03:01Z,1599588181,2020,18,3,252.7521,252.7521,63.173,-53.872,-999.00,6.86,-999.0,no,yes,no,300234068342570,SVPGHI,AOML,MARIA_S._MERI,North
2020-09-08T19:00:02Z,1599591603,2020,19,0,252.7917,252.7917,63.17,-53.875,-999.00,6.99,-999.0,no,yes,no,300234068342570,SVPGHI,AOML,MARIA_S._MERI,North
2020-09-08T20:00:57Z,1599595258,2020,20,1,252.834,252.834,63.168,-53.886,-999.00,6.92,-999.0,no,yes,no,300234068342570,SVPGHI,AOML,MARIA_S._MERI,North
2020-09-08T21:01:00Z,1599598860,2020,21,1,252.8757,252.8757,63.165,-53.899,-999.00,7.04,-999.0,no,yes,no,300234068342570,SVPGHI,AOML,MARIA_S._MERI,North
2020-09-08T22:00:02Z,1599602403,2020,22,0,252.9167,252.9167,63.167,-53.914,-999.00,7.02,-999.0,no,yes,no,300234068342570,SVPGHI,AOML,MARIA_S._MERI,North
2020-09-08T23:00:57Z,1599606058,2020,23,1,252.959,252.959,63.169,-53.927,-999.00,7.01,-999.0,no,yes,no,300234068342570,SVPGHI,AOML,MARIA_S._MERI,North
2020-09-09T00:02:00Z,1599609721,2020,0,2,253.0014,253.0014,63.174,-53.947,-999.00,6.96,-999.0,no,yes,no,300234068342570,SVPGHI,AOML,MARIA_S._MERI,North
2020-09-09T01:00:02Z,1599613203,2020,1,0,253.0417,253.0417,63.17,-53.972,-999.00,6.84,-999.0,no,yes,no,300234068342570,SVPGHI,AOML,MARIA_S._MERI,North
2020-09-09T01:59:57Z,1599616797,2020,2,0,253.0833,253.0833,63.174,-53.998,-999.00,6.72,-999.0,no,yes,no,300234068342570,SVPGHI,AOML,MARIA_S._MERI,North
2020-09-09T03:00:00Z,1599620400,2020,3,0,253.125,253.125,63.176,-54.015,-999.00,6.63,-999.0,no,yes,no,300234068342570,SVPGHI,AOML,MARIA_S._MERI,North
2020-09-09T04:01:03Z,1599624063,2020,4,1,253.1674,253.1674,63.176,-54.028,-999.00,6.56,-999.0,no,yes,no,300234068342570,SVPGHI,AOML,MARIA_S._MERI,North
2020-09-09T05:03:59Z,1599627839,2020,5,4,253.2111,253.2111,63.178,-54.048,-999.00,6.57,-999.0,no,yes,no,300234068342570,SVPGHI,AOML,MARIA_S._MERI,North
2020-09-09T06:00:00Z,1599631200,2020,6,0,253.25,253.25,63.182,-54.065,-999.00,6.57,-999.0,no,yes,no,300234068342570,SVPGHI,AOML,MARIA_S._MERI,North
2020-09-09T07:00:02Z,1599634803,2020,7,0,253.2917,253.2917,63.183,-54.077,-999.00,6.58,-999.0,no,yes,no,300234068342570,SVPGHI,AOML,MARIA_S._MERI,North
2020-09-09T07:59:57Z,1599638397,2020,8,0,253.3333,253.3333,63.184,-54.091,-999.00,6.61,-999.0,no,yes,no,300234068342570,SVPGHI,AOML,MARIA_S._MERI,North
2020-09-09T09:00:00Z,1599642000,2020,9,0,253.375,253.375,63.183,-54.107,-999.00,6.64,-999.0,no,yes,no,300234068342570,SVPGHI,AOML,MARIA_S._MERI,North
2020-09-09T10:02:03Z,1599645724,2020,10,2,253.4181,253.4181,63.186,-54.126,-999.00,6.73,-999.0,no,yes,no,300234068342570,SVPGHI,AOML,MARIA_S._MERI,North
2020-09-09T10:59:57Z,1599649197,2020,11,0,253.4583,253.4583,63.183,-54.133,-999.00,6.73,-999.0,no,yes,no,300234068342570,SVPGHI,AOML,MARIA_S._MERI,North
2020-09-09T12:00:00Z,1599652800,2020,12,0,253.5,253.5,63.182,-54.145,-999.00,6.71,-999.0,no,yes,no,300234068342570,SVPGHI,AOML,MARIA_S._MERI,North
2020-09-09T13:00:02Z,1599656403,2020,13,0,253.5417,253.5417,63.179,-54.164,-999.00,6.6,-999.0,no,yes,no,300234068342570,SVPGHI,AOML,MARIA_S._MERI,North
2020-09-09T14:02:58Z,1599660179,2020,14,3,253.5854,253.5854,63.175,-54.182,-999.00,6.65,-999.0,no,yes,no,300234068342570,SVPGHI,AOML,MARIA_S._MERI,North
2020-09-09T15:01:00Z,1599663660,2020,15,1,253.6257,253.6257,63.171,-54.206,-999.00,6.62,-999.0,no,yes,no,300234068342570,SVPGHI,AOML,MARIA_S._MERI,North
2020-09-09T16:00:02Z,1599667203,2020,16,0,253.6667,253.6667,63.169,-54.23,-999.00,6.52,-999.0,no,yes,no,300234068342570,SVPGHI,AOML,MARIA_S._MERI,North
2020-09-09T16:59:57Z,1599670797,2020,17,0,253.7083,253.7083,63.167,-54.255,-999.00,6.47,-999.0,no,yes,no,300234068342570,SVPGHI,AOML,MARIA_S._MERI,North
2020-09-09T18:01:00Z,1599674460,2020,18,1,253.7507,253.7507,63.163,-54.284,-999.00,6.45,-999.0,no,yes,no,300234068342570,SVPGHI,AOML,MARIA_S._MERI,North
2020-09-09T19:01:03Z,1599678063,2020,19,1,253.7924,253.7924,63.16,-54.308,-999.00,6.44,-999.0,no,yes,no,300234068342570,SVPGHI,AOML,MARIA_S._MERI,North
2020-09-09T20:00:57Z,1599681658,2020,20,1,253.834,253.834,63.162,-54.335,-999.00,6.44,-999.0,no,yes,no,300234068342570,SVPGHI,AOML,MARIA_S._MERI,North
2020-09-09T21:02:00Z,1599685321,2020,21,2,253.8764,253.8764,63.162,-54.352,-999.00,6.46,-999.0,no,yes,no,300234068342570,SVPGHI,AOML,MARIA_S._MERI,North
2020-09-09T22:01:03Z,1599688863,2020,22,1,253.9174,253.9174,63.163,-54.37,-999.00,5.96,-999.0,no,yes,no,300234068342570,SVPGHI,AOML,MARIA_S._MERI,North
2020-09-09T22:59:57Z,1599692397,2020,23,0,253.9583,253.9583,63.162,-54.388,-999.00,5.85,-999.0,no,yes,no,300234068342570,SVPGHI,AOML,MARIA_S._MERI,North
2020-09-10T00:03:01Z,1599696181,2020,0,3,254.0021,254.0021,63.16,-54.411,-999.00,5.85,-999.0,no,yes,no,300234068342570,SVPGHI,AOML,MARIA_S._MERI,North
2020-09-10T01:00:02Z,1599699603,2020,1,0,254.0417,254.0417,63.154,-54.432,-999.00,5.86,-999.0,no,yes,no,300234068342570,SVPGHI,AOML,MARIA_S._MERI,North
2020-09-10T01:59:57Z,1599703197,2020,2,0,254.0833,254.0833,63.15,-54.463,-999.00,5.85,-999.0,no,yes,no,300234068342570,SVPGHI,AOML,MARIA_S._MERI,North
2020-09-10T03:00:00Z,1599706800,2020,3,0,254.125,254.125,63.146,-54.501,-999.00,5.99,-999.0,no,yes,no,300234068342570,SVPGHI,AOML,MARIA_S._MERI,North
2020-09-10T04:00:02Z,1599710403,2020,4,0,254.1667,254.1667,63.148,-54.546,-999.00,5.93,-999.0,no,yes,no,300234068342570,SVPGHI,AOML,MARIA_S._MERI,North
2020-09-10T04:59:57Z,1599713997,2020,5,0,254.2083,254.2083,63.149,-54.572,-999.00,5.92,-999.0,no,yes,no,300234068342570,SVPGHI,AOML,MARIA_S._MERI,North
2020-09-10T06:00:00Z,1599717600,2020,6,0,254.25,254.25,63.153,-54.596,-999.00,5.92,-999.0,no,yes,no,300234068342570,SVPGHI,AOML,MARIA_S._MERI,North
2020-09-10T07:00:02Z,1599721203,2020,7,0,254.2917,254.2917,63.155,-54.619,-999.00,5.95,-999.0,no,yes,no,300234068342570,SVPGHI,AOML,MARIA_S._MERI,North
2020-09-10T07:59:57Z,1599724797,2020,8,0,254.3333,254.3333,63.158,-54.639,-999.00,5.97,-999.0,no,yes,no,300234068342570,SVPGHI,AOML,MARIA_S._MERI,North
2020-09-10T09:00:00Z,1599728400,2020,9,0,254.375,254.375,63.16,-54.655,-999.00,5.98,-999.0,no,yes,no,300234068342570,SVPGHI,AOML,MARIA_S._MERI,North
2020-09-10T10:01:03Z,1599732063,2020,10,1,254.4174,254.4174,63.163,-54.67,-999.00,6.01,-999.0,no,yes,no,300234068342570,SVPGHI,AOML,MARIA_S._MERI,North
2020-09-10T10:59:57Z,1599735597,2020,11,0,254.4583,254.4583,63.165,-54.686,-999.00,6.04,-999.0,no,yes,no,300234068342570,SVPGHI,AOML,MARIA_S._MERI,North
2020-09-10T12:00:00Z,1599739200,2020,12,0,254.5,254.5,63.162,-54.706,-999.00,6.08,-999.0,no,yes,no,300234068342570,SVPGHI,AOML,MARIA_S._MERI,North
2020-09-10T13:00:02Z,1599742803,2020,13,0,254.5417,254.5417,63.161,-54.736,-999.00,6.09,-999.0,no,yes,no,300234068342570,SVPGHI,AOML,MARIA_S._MERI,North
2020-09-10T14:00:57Z,1599746458,2020,14,1,254.584,254.584,63.164,-54.766,-999.00,6.1,-999.0,no,yes,no,300234068342570,SVPGHI,AOML,MARIA_S._MERI,North
2020-09-10T16:00:02Z,1599753603,2020,16,0,254.6667,254.6667,63.167,-54.833,-999.00,6.11,-999.0,no,yes,no,300234068342570,SVPGHI,AOML,MARIA_S._MERI,North
2020-09-10T16:59:57Z,1599757197,2020,17,0,254.7083,254.7083,63.166,-54.864,-999.00,6.16,-999.0,no,yes,no,300234068342570,SVPGHI,AOML,MARIA_S._MERI,North
2020-09-10T18:00:00Z,1599760800,2020,18,0,254.75,254.75,63.166,-54.901,-999.00,6.19,-999.0,no,yes,no,300234068342570,SVPGHI,AOML,MARIA_S._MERI,North
2020-09-10T19:00:02Z,1599764403,2020,19,0,254.7917,254.7917,63.168,-54.938,-999.00,6.19,-999.0,no,yes,no,300234068342570,SVPGHI,AOML,MARIA_S._MERI,North
2020-09-10T19:59:57Z,1599767997,2020,20,0,254.8333,254.8333,63.171,-54.966,-999.00,6.17,-999.0,no,yes,no,300234068342570,SVPGHI,AOML,MARIA_S._MERI,North
2020-09-10T21:00:00Z,1599771600,2020,21,0,254.875,254.875,63.176,-54.994,-999.00,6.16,-999.0,no,yes,no,300234068342570,SVPGHI,AOML,MARIA_S._MERI,North
2020-09-10T22:00:02Z,1599775203,2020,22,0,254.9167,254.9167,63.182,-55.012,-999.00,6.17,-999.0,no,yes,no,300234068342570,SVPGHI,AOML,MARIA_S._MERI,North
2020-09-10T22:59:57Z,1599778797,2020,23,0,254.9583,254.9583,63.186,-55.023,-999.00,6.17,-999.0,no,yes,no,300234068342570,SVPGHI,AOML,MARIA_S._MERI,North
2020-09-11T00:00:00Z,1599782400,2020,0,0,255.0,255.0,63.188,-55.038,-999.00,6.18,-999.0,no,yes,no,300234068342570,SVPGHI,AOML,MARIA_S._MERI,North
2020-09-11T01:00:02Z,1599786003,2020,1,0,255.0417,255.0417,63.188,-55.05,-999.00,6.17,-999.0,no,yes,no,300234068342570,SVPGHI,AOML,MARIA_S._MERI,North
2020-09-11T01:59:57Z,1599789597,2020,2,0,255.0833,255.0833,63.188,-55.066,-999.00,6.17,-999.0,no,yes,no,300234068342570,SVPGHI,AOML,MARIA_S._MERI,North
2020-09-11T03:01:00Z,1599793260,2020,3,1,255.1257,255.1257,63.186,-55.084,-999.00,6.16,-999.0,no,yes,no,300234068342570,SVPGHI,AOML,MARIA_S._MERI,North
2020-09-11T04:01:03Z,1599796863,2020,4,1,255.1674,255.1674,63.181,-55.108,-999.00,6.16,-999.0,no,yes,no,300234068342570,SVPGHI,AOML,MARIA_S._MERI,North
2020-09-11T04:59:57Z,1599800397,2020,5,0,255.2083,255.2083,63.178,-55.139,-999.00,6.17,-999.0,no,yes,no,300234068342570,SVPGHI,AOML,MARIA_S._MERI,North
2020-09-11T06:00:00Z,1599804000,2020,6,0,255.25,255.25,63.18,-55.175,-999.00,6.15,-999.0,no,yes,no,300234068342570,SVPGHI,AOML,MARIA_S._MERI,North
2020-09-11T07:00:02Z,1599807603,2020,7,0,255.2917,255.2917,63.184,-55.204,-999.00,6.15,-999.0,no,yes,no,300234068342570,SVPGHI,AOML,MARIA_S._MERI,North
2020-09-11T07:59:57Z,1599811197,2020,8,0,255.3333,255.3333,63.19,-55.236,-999.00,6.13,-999.0,no,yes,no,300234068342570,SVPGHI,AOML,MARIA_S._MERI,North
2020-09-11T09:00:00Z,1599814800,2020,9,0,255.375,255.375,63.2,-55.264,-999.00,6.11,-999.0,no,yes,no,300234068342570,SVPGHI,AOML,MARIA_S._MERI,North
2020-09-11T10:00:02Z,1599818403,2020,10,0,255.4167,255.4167,63.211,-55.286,-999.00,6.11,-999.0,no,yes,no,300234068342570,SVPGHI,AOML,MARIA_S._MERI,North
2020-09-11T10:59:57Z,1599821997,2020,11,0,255.4583,255.4583,63.224,-55.301,-999.00,6.13,-999.0,no,yes,no,300234068342570,SVPGHI,AOML,MARIA_S._MERI,North
2020-09-11T12:00:00Z,1599825600,2020,12,0,255.5,255.5,63.235,-55.304,-999.00,6.14,-999.0,no,yes,no,300234068342570,SVPGHI,AOML,MARIA_S._MERI,North
2020-09-11T13:00:02Z,1599829203,2020,13,0,255.5417,255.5417,63.248,-55.311,-999.00,6.16,-999.0,no,yes,no,300234068342570,SVPGHI,AOML,MARIA_S._MERI,North
2020-09-11T13:59:57Z,1599832797,2020,14,0,255.5833,255.5833,63.256,-55.311,-999.00,6.19,-999.0,no,yes,no,300234068342570,SVPGHI,AOML,MARIA_S._MERI,North
2020-09-11T15:00:00Z,1599836400,2020,15,0,255.625,255.625,63.26,-55.311,-999.00,6.23,-999.0,no,yes,no,300234068342570,SVPGHI,AOML,MARIA_S._MERI,North
2020-09-11T16:00:02Z,1599840003,2020,16,0,255.6667,255.6667,63.264,-55.315,-999.00,6.29,-999.0,no,yes,no,300234068342570,SVPGHI,AOML,MARIA_S._MERI,North
2020-09-11T16:59:57Z,1599843597,2020,17,0,255.7083,255.7083,63.266,-55.326,-999.00,6.32,-999.0,no,yes,no,300234068342570,SVPGHI,AOML,MARIA_S._MERI,North
2020-09-11T18:00:00Z,1599847200,2020,18,0,255.75,255.75,63.265,-55.345,-999.00,6.35,-999.0,no,yes,no,300234068342570,SVPGHI,AOML,MARIA_S._MERI,North
2020-09-11T19:00:02Z,1599850803,2020,19,0,255.7917,255.7917,63.266,-55.365,-999.00,6.36,-999.0,no,yes,no,300234068342570,SVPGHI,AOML,MARIA_S._MERI,North
2020-09-11T19:59:57Z,1599854397,2020,20,0,255.8333,255.8333,63.271,-55.389,-999.00,6.35,-999.0,no,yes,no,300234068342570,SVPGHI,AOML,MARIA_S._MERI,North
2020-09-11T21:00:00Z,1599858000,2020,21,0,255.875,255.875,63.279,-55.413,-999.00,6.34,-999.0,no,yes,no,300234068342570,SVPGHI,AOML,MARIA_S._MERI,North
2020-09-11T22:00:02Z,1599861603,2020,22,0,255.9167,255.9167,63.29,-55.428,-999.00,6.32,-999.0,no,yes,no,300234068342570,SVPGHI,AOML,MARIA_S._MERI,North
2020-09-11T22:59:57Z,1599865197,2020,23,0,255.9583,255.9583,63.3,-55.438,-999.00,6.32,-999.0,no,yes,no,300234068342570,SVPGHI,AOML,MARIA_S._MERI,North
2020-09-12T00:00:00Z,1599868800,2020,0,0,256.0,256.0,63.311,-55.451,-999.00,6.29,-999.0,no,yes,no,300234068342570,SVPGHI,AOML,MARIA_S._MERI,North
2020-09-12T01:00:02Z,1599872403,2020,1,0,256.0417,256.0417,63.321,-55.453,-999.00,6.25,-999.0,no,yes,no,300234068342570,SVPGHI,AOML,MARIA_S._MERI,North
2020-09-12T01:59:57Z,1599875997,2020,2,0,256.0833,256.0833,63.333,-55.452,-999.00,6.22,-999.0,no,yes,no,300234068342570,SVPGHI,AOML,MARIA_S._MERI,North
2020-09-12T03:00:00Z,1599879600,2020,3,0,256.125,256.125,63.342,-55.45,-999.00,6.2,-999.0,no,yes,no,300234068342570,SVPGHI,AOML,MARIA_S._MERI,North
2020-09-12T04:01:03Z,1599883263,2020,4,1,256.1674,256.1674,63.349,-55.447,-999.00,6.18,-999.0,no,yes,no,300234068342570,SVPGHI,AOML,MARIA_S._MERI,North
2020-09-12T04:59:57Z,1599886797,2020,5,0,256.2083,256.2083,63.354,-55.446,-999.00,6.15,-999.0,no,yes,no,300234068342570,SVPGHI,AOML,MARIA_S._MERI,North
2020-09-12T06:00:00Z,1599890400,2020,6,0,256.25,256.25,63.355,-55.446,-999.00,6.17,-999.0,no,yes,no,300234068342570,SVPGHI,AOML,MARIA_S._MERI,North
2020-09-12T07:03:04Z,1599894184,2020,7,3,256.2938,256.2938,63.358,-55.449,-999.00,6.14,-999.0,no,yes,no,300234068342570,SVPGHI,AOML,MARIA_S._MERI,North
2020-09-12T07:59:57Z,1599897597,2020,8,0,256.3333,256.3333,63.36,-55.454,-999.00,6.13,-999.0,no,yes,no,300234068342570,SVPGHI,AOML,MARIA_S._MERI,North